VIR93 EGKK-MMUN

Flight info

Callsign VIR93
Flight time N/A
Altitude 32000
Route NOVMA L620 SAM N19 ADKIK DCT MOPAT DCT NEBIN DCT TUDEP N526A TOPPS DCT ENE DCT MERIT DCT RIDGY DCT COLIN DCT ARGAL DCT FLO DCT ESENT DCT JAYJA DCT KNOST DCT CIGAR M219 NAVVL L465 SHARQ UM463 WALKY UB879 NOSAT NOSAT1B
Aircraft B744/H-SDE3FGHIM1M2RWXY/LB1

Departure

Time 2026-05-04 06:33
Airport London Gatwick Airport (EGKK)

Arrival

Time N/A
Airport Cancún International Airport (MMUN)
Time Latitude Longitude Altitude Speed Heading
2026-05-04 06:07 51.15531 -0.17187 209 ft 0 kts 131°
2026-05-04 06:21 51.15531 -0.17188 209 ft 1 kts 131°
2026-05-04 06:21 51.15540 -0.17204 209 ft 3 kts 131°
2026-05-04 06:22 51.15552 -0.17227 209 ft 3 kts 131°
2026-05-04 06:22 51.15566 -0.17251 209 ft 3 kts 133°
2026-05-04 06:25 51.15586 -0.17274 209 ft 0 kts 160°
2026-05-04 06:28 51.15583 -0.17272 209 ft 4 kts 167°
2026-05-04 06:28 51.15498 -0.17288 209 ft 21 kts 176°
2026-05-04 06:28 51.15298 -0.17230 209 ft 36 kts 165°
2026-05-04 06:28 51.15218 -0.17026 209 ft 19 kts 73°
2026-05-04 06:29 51.15291 -0.16854 209 ft 19 kts 50°
2026-05-04 06:29 51.15300 -0.16663 209 ft 17 kts 98°
2026-05-04 06:29 51.15276 -0.16510 209 ft 13 kts 131°
2026-05-04 06:29 51.15198 -0.16444 209 ft 11 kts 161°
2026-05-04 06:30 51.15132 -0.16464 209 ft 10 kts 240°
2026-05-04 06:30 51.15114 -0.16572 209 ft 10 kts 270°
2026-05-04 06:30 51.15115 -0.16679 209 ft 10 kts 271°
2026-05-04 06:30 51.15112 -0.16782 209 ft 9 kts 262°
2026-05-04 06:31 51.15098 -0.16880 209 ft 9 kts 256°
2026-05-04 06:31 51.15082 -0.16996 209 ft 16 kts 258°
2026-05-04 06:31 51.15055 -0.17216 209 ft 24 kts 257°
2026-05-04 06:31 51.15017 -0.17506 209 ft 29 kts 257°
2026-05-04 06:32 51.14978 -0.17778 209 ft 21 kts 257°
2026-05-04 06:33 51.13432 -0.27324 2294 ft 185 kts 258°
2026-05-04 06:34 51.13174 -0.29400 2570 ft 201 kts 261°
2026-05-04 06:34 51.12929 -0.31743 2712 ft 221 kts 261°
2026-05-04 06:34 51.12642 -0.34227 2853 ft 240 kts 260°
2026-05-04 06:34 51.12314 -0.36941 3014 ft 260 kts 260°
2026-05-04 06:35 51.11956 -0.39819 3450 ft 268 kts 259°
2026-05-04 06:36 51.06518 -0.58922 4000 ft 272 kts 243°
2026-05-04 06:37 51.05691 -0.61619 3997 ft 272 kts 247°
2026-05-04 06:37 51.05080 -0.64451 3997 ft 272 kts 255°
2026-05-04 06:37 51.04664 -0.67347 3999 ft 272 kts 258°
2026-05-04 06:37 51.04306 -0.70299 3999 ft 271 kts 259°
2026-05-04 06:38 51.03955 -0.73246 4000 ft 271 kts 259°
2026-05-04 06:38 51.03613 -0.76125 4003 ft 272 kts 259°
2026-05-04 06:40 51.00553 -0.98072 8211 ft 302 kts 256°
2026-05-04 06:40 51.00077 -1.01330 8922 ft 305 kts 257°
2026-05-04 06:40 50.99649 -1.04609 9564 ft 307 kts 258°
2026-05-04 06:40 50.99204 -1.07970 10227 ft 309 kts 257°
2026-05-04 06:41 50.98743 -1.11351 10534 ft 325 kts 257°
2026-05-04 06:41 50.98241 -1.14968 10691 ft 345 kts 257°
2026-05-04 06:41 50.97706 -1.18794 10843 ft 366 kts 257°
2026-05-04 06:41 50.97137 -1.22851 10990 ft 387 kts 257°
2026-05-04 06:42 50.96535 -1.27134 11199 ft 405 kts 257°
2026-05-04 06:42 50.95917 -1.31530 11775 ft 413 kts 257°
2026-05-04 06:42 50.95293 -1.35998 12415 ft 418 kts 257°
2026-05-04 06:44 50.91381 -1.67077 17005 ft 443 kts 257°
2026-05-04 06:44 50.90751 -1.71870 17622 ft 447 kts 257°
2026-05-04 06:44 50.90111 -1.76715 18242 ft 451 kts 257°
2026-05-04 06:45 50.89466 -1.81577 18827 ft 454 kts 257°
2026-05-04 06:45 50.88812 -1.86504 19428 ft 457 kts 257°
2026-05-04 06:45 50.88153 -1.91465 19983 ft 461 kts 257°
2026-05-04 06:45 50.87491 -1.96456 20522 ft 465 kts 257°
2026-05-04 06:46 50.86821 -2.01503 21054 ft 468 kts 257°
2026-05-04 06:46 50.86168 -2.06527 21789 ft 467 kts 257°
2026-05-04 06:46 50.85542 -2.11529 22171 ft 473 kts 256°
2026-05-04 06:46 50.84873 -2.16642 22693 ft 475 kts 256°
2026-05-04 06:48 50.80309 -2.53265 25953 ft 493 kts 270°
2026-05-04 06:48 50.80692 -2.58657 26564 ft 493 kts 276°
2026-05-04 06:49 50.81342 -2.63939 27054 ft 493 kts 279°
2026-05-04 06:50 50.87554 -3.00428 30122 ft 488 kts 282°
2026-05-04 06:51 50.88432 -3.05633 30466 ft 488 kts 282°
2026-05-04 06:51 50.89334 -3.10810 30821 ft 488 kts 283°
2026-05-04 06:51 50.90259 -3.15978 31149 ft 488 kts 283°
2026-05-04 06:51 50.91168 -3.21158 31449 ft 488 kts 283°
2026-05-04 06:52 50.92055 -3.26286 31750 ft 488 kts 283°
2026-05-04 06:52 50.92946 -3.31490 31990 ft 488 kts 283°
2026-05-04 06:52 50.94709 -3.41905 31992 ft 489 kts 283°
2026-05-04 06:53 50.96457 -3.52337 31991 ft 489 kts 283°
2026-05-04 06:53 50.98195 -3.62779 31991 ft 489 kts 283°
2026-05-04 06:54 50.99923 -3.73233 31990 ft 490 kts 283°
2026-05-04 06:54 51.01632 -3.83640 31989 ft 490 kts 283°
2026-05-04 06:55 51.03344 -3.94134 31986 ft 491 kts 283°
2026-05-04 06:55 51.05051 -4.04657 31985 ft 491 kts 282°
2026-05-04 06:57 51.11800 -4.46938 31975 ft 493 kts 282°
2026-05-04 06:58 51.13456 -4.57478 31974 ft 494 kts 282°
2026-05-04 06:58 51.15113 -4.68093 31973 ft 494 kts 282°
2026-05-04 06:59 51.16762 -4.78727 31973 ft 495 kts 283°
2026-05-04 06:59 51.18403 -4.89380 31972 ft 495 kts 283°
2026-05-04 07:01 51.24890 -5.32198 31969 ft 498 kts 283°
2026-05-04 07:02 51.26493 -5.42961 31969 ft 499 kts 283°
2026-05-04 07:02 51.28089 -5.53752 31971 ft 499 kts 283°
2026-05-04 07:03 51.29675 -5.64550 31970 ft 500 kts 283°
2026-05-04 07:03 51.31255 -5.75377 31972 ft 501 kts 283°
2026-05-04 07:04 51.32817 -5.86156 31972 ft 501 kts 283°
2026-05-04 07:04 51.34379 -5.97020 31973 ft 501 kts 283°
2026-05-04 07:05 51.35931 -6.07884 31975 ft 502 kts 283°
2026-05-04 07:05 51.37476 -6.18777 31984 ft 501 kts 283°
2026-05-04 07:06 51.39771 -6.35107 31984 ft 501 kts 283°
2026-05-04 07:07 51.41290 -6.46012 32011 ft 501 kts 283°
2026-05-04 07:09 51.47288 -6.89674 32031 ft 502 kts 283°
2026-05-04 07:09 51.48741 -7.00644 32033 ft 502 kts 283°
2026-05-04 07:10 51.50636 -7.11387 32039 ft 501 kts 294°
2026-05-04 07:12 51.62371 -7.51840 32044 ft 499 kts 298°
2026-05-04 07:12 51.65319 -7.61942 32046 ft 499 kts 299°
2026-05-04 07:13 51.68342 -7.72012 32048 ft 499 kts 299°
2026-05-04 07:13 51.71289 -7.82024 32049 ft 498 kts 298°
2026-05-04 07:14 51.78652 -8.07447 32052 ft 498 kts 298°
2026-05-04 07:15 51.81566 -8.17610 32052 ft 499 kts 298°
2026-05-04 07:15 51.84451 -8.27713 32052 ft 499 kts 298°
2026-05-04 07:16 51.87351 -8.37916 32053 ft 499 kts 298°
2026-05-04 07:16 51.90243 -8.48136 32053 ft 500 kts 298°
2026-05-04 07:17 51.93129 -8.58379 32053 ft 500 kts 298°
2026-05-04 07:17 51.96009 -8.68645 32054 ft 500 kts 298°
2026-05-04 07:18 51.98883 -8.78935 32056 ft 501 kts 298°
2026-05-04 07:18 52.01745 -8.89228 32058 ft 500 kts 298°
2026-05-04 07:19 52.04579 -8.99465 32059 ft 495 kts 298°
2026-05-04 07:19 52.07396 -9.09683 32062 ft 495 kts 298°
2026-05-04 07:20 52.10204 -9.19914 32064 ft 495 kts 298°
2026-05-04 07:20 52.12999 -9.30148 32066 ft 495 kts 298°
2026-05-04 07:22 52.24063 -9.71094 32071 ft 493 kts 298°
2026-05-04 07:23 52.26794 -9.81315 32072 ft 494 kts 298°
2026-05-04 07:23 52.29529 -9.91594 32072 ft 493 kts 298°
2026-05-04 07:24 52.32097 -10.02002 32081 ft 496 kts 291°
2026-05-04 07:24 52.33933 -10.13068 32067 ft 510 kts 290°
2026-05-04 07:26 52.40991 -10.58394 32072 ft 513 kts 290°
2026-05-04 07:27 52.42728 -10.69720 32072 ft 512 kts 290°
2026-05-04 07:27 52.44448 -10.81017 32072 ft 511 kts 290°
2026-05-04 07:28 52.46159 -10.92335 32072 ft 510 kts 290°
2026-05-04 07:28 52.47854 -11.03622 32072 ft 509 kts 289°
2026-05-04 07:29 52.49533 -11.14884 32072 ft 508 kts 289°
2026-05-04 07:29 52.51198 -11.26137 32072 ft 506 kts 289°
2026-05-04 07:30 52.52848 -11.37365 32071 ft 506 kts 289°
2026-05-04 07:30 52.54210 -11.46694 32071 ft 505 kts 289°
2026-05-04 07:31 52.55835 -11.57902 32071 ft 504 kts 289°
2026-05-04 07:33 52.62222 -12.02760 32065 ft 503 kts 289°
2026-05-04 07:33 52.63806 -12.14090 32070 ft 511 kts 289°
2026-05-04 07:34 52.65395 -12.25548 32071 ft 513 kts 289°
2026-05-04 07:34 52.66971 -12.36993 32070 ft 511 kts 289°
2026-05-04 07:35 52.68531 -12.48413 32072 ft 510 kts 288°
2026-05-04 07:35 52.70079 -12.59833 32086 ft 510 kts 288°
2026-05-04 07:36 52.71644 -12.71473 32089 ft 509 kts 288°
2026-05-04 07:38 52.77645 -13.16990 32089 ft 506 kts 287°
2026-05-04 07:38 52.79120 -13.28401 32113 ft 505 kts 287°
2026-05-04 07:39 52.80575 -13.39748 32113 ft 504 kts 287°
2026-05-04 07:39 52.82017 -13.51087 32113 ft 504 kts 287°
2026-05-04 07:40 52.83447 -13.62430 32113 ft 503 kts 287°
2026-05-04 07:40 52.84866 -13.73768 32112 ft 503 kts 287°
2026-05-04 07:41 52.86270 -13.85082 32111 ft 502 kts 287°
2026-05-04 07:41 52.87654 -13.96330 32112 ft 502 kts 286°
2026-05-04 07:42 52.89048 -14.07753 32111 ft 506 kts 287°
2026-05-04 07:42 52.90440 -14.19255 32112 ft 511 kts 286°
2026-05-04 07:43 52.91822 -14.30769 32111 ft 508 kts 286°
2026-05-04 07:43 52.93190 -14.42262 32111 ft 508 kts 286°
2026-05-04 07:44 52.94608 -14.53634 32111 ft 507 kts 287°
2026-05-04 07:44 52.95992 -14.65092 32111 ft 506 kts 285°
2026-05-04 07:45 52.97317 -14.76642 32112 ft 506 kts 285°
2026-05-04 07:45 52.98620 -14.88028 32111 ft 505 kts 285°
2026-05-04 07:46 53.00020 -14.99435 32112 ft 502 kts 289°
2026-05-04 07:46 53.02197 -15.10414 32111 ft 498 kts 295°
2026-05-04 07:47 53.04651 -15.21146 32111 ft 495 kts 295°
2026-05-04 07:49 53.14179 -15.64043 32113 ft 493 kts 295°
2026-05-04 07:49 53.16565 -15.74749 32113 ft 492 kts 294°
2026-05-04 07:50 53.18911 -15.85463 32113 ft 492 kts 294°
2026-05-04 07:50 53.21238 -15.96191 32112 ft 492 kts 294°
2026-05-04 07:51 53.23556 -16.06952 32112 ft 493 kts 293°
2026-05-04 07:51 53.25851 -16.17669 32113 ft 494 kts 293°
2026-05-04 07:52 53.28164 -16.28531 32113 ft 493 kts 293°
2026-05-04 07:52 53.30435 -16.39254 32113 ft 493 kts 293°